Location: Fishcreek Rd Observing Site
(41.1865°N, 81.4271°W)
Time: 21:42:39
(UTC-05:00)

Iridium 75 - Visible Passes

Search period start: 09 February 2016 00:00
Search period end: 19 February 2016 00:00
Orbit: 776 x 779 km, 86.4° (Epoch: 09 February)

Date Brightness Start Highest point End Pass type
(mag) Time Alt. Az. Time Alt. Az. Time Alt. Az.
09 Feb 8.8 06:21:15 10° NNE 06:24:54 19° ENE 06:28:31 10° ESE visible
09 Feb 6.4 19:17:15 10° SSE 19:22:02 38° E 19:26:50 10° NNE visible
09 Feb 8.1 20:58:39 10° SW 21:02:51 24° WNW 21:07:03 10° NNW visible
10 Feb 7.1 18:44:53 10° SE 18:48:45 21° E 18:52:36 10° NNE visible
10 Feb 7.1 20:24:10 10° SSW 20:29:07 43° W 20:34:06 10° N visible
11 Feb 7.2 06:53:50 10° N 06:58:53 48° E 07:03:54 10° SSE visible
11 Feb 6.0 19:50:18 10° S 19:55:31 80° W 20:00:46 10° N visible
12 Feb 8.4 06:20:47 10° NNE 06:25:11 27° ENE 06:29:32 10° SE visible
12 Feb 6.0 19:16:58 10° SSE 19:22:02 55° E 19:27:08 10° NNE visible
12 Feb 8.7 20:59:47 10° WSW 21:03:08 17° WNW 21:06:30 10° NW visible
13 Feb 9.0 05:48:25 10° NE 05:51:20 15° ENE 05:54:14 10° ESE visible
13 Feb 6.7 18:44:11 10° SE 18:48:41 30° E 18:53:11 10° NNE visible
13 Feb 7.8 20:24:46 10° SW 20:29:19 30° W 20:33:54 10° NNW visible
14 Feb 6.7 19:50:33 10° SSW 19:55:39 55° W 20:00:47 10° N visible
15 Feb 7.7 06:20:33 10° NNE 06:25:24 38° E 06:30:13 10° SSE visible
15 Feb 5.9 19:16:53 10° S 19:22:06 81° E 19:27:20 10° N visible
15 Feb 9.1 21:01:40 10° W 21:03:28 12° WNW 21:05:17 10° NW visible
16 Feb 8.7 05:47:42 10° NNE 05:51:39 21° ENE 05:55:34 10° SE visible
16 Feb 6.3 18:43:46 10° SSE 18:48:40 43° E 18:53:35 10° NNE visible
16 Feb 8.5 20:25:38 10° SW 20:29:35 21° WNW 20:33:32 10° NNW visible
17 Feb 9.2 05:16:00 10° NE 05:17:44 12° ENE 05:19:29 10° E visible
17 Feb 7.5 19:50:59 10° SSW 19:55:49 38° W 20:00:41 10° NNW visible
18 Feb 6.9 06:20:26 10° N 06:25:35 55° E 06:30:41 10° SSE visible
18 Feb 6.3 19:17:00 10° S 19:22:11 71° W 19:27:25 10° N visible
